Retour au catalogue

STARLINK-3139

ActifCommunicationsVLEO
NORAD 49425·PAYLOAD·🇺🇸 United States

Lancé Nov 13, 2021 depuis Cape Canaveral Space Force Station

Loading…

Prochains Passages (prochaines 24 heures)

TLE

FraisSource: CelesTrak SupGP

Époque: Sep 14, 2026, 13:08 UTC

1 49425C 21104T   26257.54770833  .00012186  00000+0  39185-3 0  2574
2 49425  53.1570  88.5441 0001262  96.9474 136.0957 15.31698421    19

Suivez STARLINK-3139 en temps réel avec AllMySat

Download on the App Store